#timestamp,LO_Frequency,Hit,StdDev 
1511031615.7,286047008.2,N
1511031635.5,286047010.4,Y
1511031655.4,286047000.2,P
1511031675.2,286047002.7,N
1511031695.0,286047003.7,N
1511031695.9,286047003.7,N
1511031715.8,286047000.1,N
1511031735.6,286047001.7,N
1511031755.4,286047003.0,N
1511031775.3,286047004.4,N
1511031795.1,286047002.1,N
1511031796.0,286047002.1,N
1511031815.8,286047005.9,Y
1511031835.7,286047003.6,P
1511031855.5,286047007.1,P
1511031875.3,286047009.1,P
1511031895.2,286047006.1,N
1511031915.9,286047010.5,Y
1511031935.7,286047003.6,P
1511031955.6,286047003.6,P
1511031975.4,286047003.6,P
1511031995.2,286047001.5,N
1511032015.0,286046999.2,N
1511032015.9,286046999.2,N
1511032035.8,286046995.9,N
1511032055.6,286046995.3,N
1511032075.4,286046997.2,N
1511032095.3,286046996.5,N
1511032115.1,286046997.3,N
1511032135.8,286046999.7,N
1511032155.7,286046999.7,N
1511032175.5,286047000.1,N
1511032195.3,286047001.1,N
1511032215.2,286047001.8,N
1511032235.9,286046999.3,N
1511032255.7,286046997.9,N
1511032275.6,286046997.1,N
1511032295.4,286046994.5,N
1511032315.2,286046988.6,Y
1511032335.1,286046992.7,P
1511032336.0,286046992.7,N
1511032355.8,286046996.0,N
1511032375.6,286046993.4,N
1511032395.5,286046992.8,N
1511032415.3,286046994.8,N
1511032435.1,286046994.7,N
1511032455.9,286046990.2,Y
1511032475.7,286046997.3,P
1511032495.5,286046994.2,P
1511032515.3,286046991.4,P
1511032535.2,286046985.9,Y
1511032555.0,286046989.6,P
1511032555.9,286046989.6,P
1511032575.7,286046988.4,P
1511032595.6,286046988.3,Y
1511032615.4,286046997.3,P
1511032635.2,286046994.0,N
1511032655.1,286046995.6,N
1511032656.0,286046995.6,N
1511032675.8,286046994.2,N
1511032695.6,286046994.8,N
1511032715.5,286046990.3,Y
1511032735.3,286046997.3,P
1511032755.1,286046993.4,P
1511032775.9,286046994.4,P
1511032795.7,286046991.8,Y
1511032815.5,286046998.7,P
1511032835.4,286047000.4,N
1511032855.2,286047000.5,N
1511032875.0,286046999.5,N
1511032875.9,286046999.5,N
1511032895.8,286046997.6,N
1511032915.6,286046995.7,N
1511032935.4,286046997.2,N
1511032955.3,286046996.1,N
1511032975.1,286046993.6,Y
1511032995.8,286046999.0,P
1511033015.7,286047000.1,N
1511033035.5,286047000.1,N
1511033055.3,286047001.6,N
1511033075.2,286047003.2,N
1511033095.9,286047009.1,Y
1511033115.7,286047008.6,P
1511033135.6,286047007.0,N
1511033155.4,286047004.2,N
1511033175.2,286047002.5,N
1511033195.1,286047000.2,N
1511033196.0,286047000.2,N
1511033215.8,286047002.1,N
1511033235.6,286047001.4,N
1511033255.4,286047003.2,N
1511033275.3,286047001.5,N
1511033295.1,286047006.0,N
1511033315.8,286047005.9,N
1511033335.7,286047004.7,N
1511033355.5,286047010.0,Y
1511033375.3,286047005.9,P
1511033395.2,286047001.2,N
1511033415.0,286046999.9,N
1511033415.9,286046999.9,N
1511033435.7,286046999.0,N
1511033455.6,286047002.4,N
1511033475.4,286047003.3,N
1511033495.2,286047005.1,N
1511033515.1,286047008.6,Y
1511033516.0,286047008.6,P
1511033535.8,286047006.2,N
1511033555.6,286047006.2,N
1511033575.5,286047008.2,Y
1511033595.3,286047001.1,P
1511033615.1,286047000.3,N
1511033635.9,286046995.5,N
1511033655.7,286047002.3,N
1511033675.5,286047005.7,N
1511033695.4,286047010.5,N
1511033715.2,286047003.4,N
1511033735.0,286047007.6,N
1511033735.9,286047007.6,N
1511033755.8,286047004.6,N
1511033775.6,286047006.0,N
1511033795.4,286047008.9,N
1511033815.2,286047009.5,N
1511033835.1,286047008.4,N
1511033836.0,286047008.4,N
1511033855.8,286047006.3,N
1511033875.6,286047007.2,N
1511033895.5,286047006.6,N
1511033915.3,286047008.9,N
1511033935.1,286047007.4,N
1511033955.9,286047008.2,N
1511033975.7,286047008.0,N
1511033995.5,286047008.5,N
1511034015.4,286047010.1,N
1511034035.2,286047013.2,Y
1511034055.0,286047003.0,P
1511034055.9,286047003.0,N
1511034075.8,286047004.4,N
1511034095.6,286047002.9,N
1511034115.4,286047006.0,Y
1511034135.3,286046999.4,P
1511034155.1,286046998.0,N
1511034156.0,286046998.0,N
1511034175.8,286046997.4,N
1511034195.7,286046995.2,N
1511034215.5,286046993.9,N
1511034235.3,286046994.0,N
1511034255.1,286046991.7,N
1511034275.9,286046993.2,N
1511034295.7,286046991.6,N
1511034315.5,286046994.4,N
1511034335.4,286046992.0,N
1511034355.2,286046992.4,N
1511034375.0,286046994.2,N
1511034375.9,286046994.2,N
1511034395.8,286046994.9,N
1511034415.6,286046993.9,N
1511034435.4,286046994.4,N
1511034455.3,286046993.3,N
1511034475.1,286046993.9,N
1511034476.0,286046993.9,N
1511034495.8,286046993.4,N
1511034515.7,286046998.0,N
1511034535.5,286046998.3,N
1511034555.3,286047004.3,N
1511034575.1,286047005.6,N
1511034595.9,286047003.4,N
1511034615.7,286047005.0,N
1511034635.5,286047012.4,N
1511034655.4,286047008.7,N
1511034675.2,286047011.9,N
1511034695.0,286047009.1,N
1511034695.9,286047009.1,N
1511034715.8,286047010.5,N
1511034735.6,286047007.5,N
1511034755.4,286047009.5,N
1511034775.3,286047008.0,N
1511034795.1,286047009.9,N
1511034796.0,286047009.9,N
1511034815.8,286047010.2,N
1511034835.7,286047012.0,N
1511034855.5,286047014.7,N
1511034875.3,286047012.7,N
1511034895.2,286047012.6,N
1511034915.9,286047010.3,N
1511034935.7,286047007.9,N
1511034955.5,286047009.0,N
1511034975.4,286047005.5,N
1511034995.2,286047003.3,N
1511035015.0,286047003.8,N
1511035015.9,286047003.8,N
1511035035.8,286047001.5,N
1511035055.6,286047004.2,N
1511035075.4,286047003.0,N
1511035095.3,286047000.4,N
1511035115.1,286047005.9,N
1511035116.0,286047005.9,N
1511035135.8,286047004.5,N
1511035155.7,286047006.0,N
1511035175.5,286047007.6,N
1511035195.3,286047004.5,N
